Weather in Gazli

Uzbekistan     40˚07′48″N   63˚27′29″E
temp.,
°C
wind,
m/s
gust,
m/s
humid.,
%
clouds,
%
prec.,
mm/h
press.,
hPa
HPBL,
m
3 december, thu
thu323:00−1˚nw45520 0.0 102933
02:00−2˚nw45550 0.0 102943
05:00−3˚nnw45570 0.0 103041
08:00−5˚nw336228 0.0 103021
11:00+2˚ene224560 0.0 1030330
14:00+6˚wnw1133100 0.0 1029583
17:00+3˚nnw2336100 0.0 102922
20:00nnw4540100 0.0 103046
4 december, fri
fri423:00−3˚nne345086 0.0 103022
02:00−6˚nw226816 0.0 103021
05:00−7˚nw33688 0.0 103121
08:00−7˚nnw44610 0.0 103224
11:00nnw45340 0.0 1033331
14:00+4˚nnw55250 0.0 1031631
17:00nnw45430 0.0 103256
20:00−4˚n45740 0.0 103330
5 december, sat
sat523:00−6˚nnw34770 0.0 103321
02:00−7˚n33820 0.0 103321
05:00−8˚n23870 0.0 103221
08:00−10˚e12920 0.0 103221
11:00−2˚ene11639 0.0 1032360
14:00+2˚nnw124576 0.0 1030613
17:00−1˚n234773 0.0 102922
20:00−6˚n345135 0.0 103024
6 december, sun
sun623:00−6˚ene457417 0.0 103027
02:00−7˚ene45720 0.0 103028
05:00−7˚ne45700 0.0 103032
08:00−8˚ne45750 0.0 103041
11:00ne67440 0.0 1030335
14:00+5˚ne56251 0.0 1028545
17:00+2˚ne56301 0.0 102679
20:00−2˚ne6104797 0.0 1027174
7 december, mon
mon723:00−4˚ne6105097 0.0 1026191
02:00−4˚ne5750100 0.0 1026125
05:00−4˚nne3445100 0.0 1025123
08:00−4˚nne2343100 0.0 102747
11:00nnw2231100 0.0 1028385
14:00+3˚nw442258 0.0 1028643
17:00nw572730 0.0 1029114
20:00−6˚nnw56450 0.0 103188